Regional Weather Roundup
Issued by NWS

Home | Current Version | Previous Version | Text Only | Print | Product List | Glossary Off
Versions: 1 2 3 4 5 6 7 8 9 10 11 12 13 14 15 16 17 18 19 20 21 22 23 24 25 26 27 28 29 30 31 32 33 34 35 36 37 38 39 40 41 42 43 44 45 46 47 48 49 50

925
ASUS43 KFSD 232310
RWRSD

WEATHER ROUNDUP FOR SOUTH DAKOTA
NATIONAL WEATHER SERVICE SIOUX FALLS SD
600 PM CDT MON MAY 23 2016

NOTE: "FAIR" INDICATES FEW OR NO CLOUDS BELOW 12,000 FEET WITH NO
SIGNIFICANT WEATHER AND/OR OBSTRUCTIONS TO VISIBILITY.


SDZ001>005-009-010-012>017-240000-
NORTHWEST AND NORTH CENTRAL SOUTH DAKOTA

CITY           SKY/WX    TMP DP  RH WIND       PRES   REMARKS
BUFFALO          N/A     73  33  23 NW14      29.63S
FAITH            N/A     74  38  27 SW10      29.69S
MOBRIDGE       SUNNY     78  49  35 SE13      29.66S
$$

SDZ012>016-024>037-041>051-057-063-072>074-240000-
SOUTHWEST AND SOUTH CENTRAL SOUTH DAKOTA

CITY           SKY/WX    TMP DP  RH WIND       PRES   REMARKS
RAPID CTY ARPT SUNNY     73  25  16 W17       29.71R
PIERRE         MOSUNNY   77  44  30 VRB3      29.67S
CUSTER         CLOUDY    63  22  20 W15G26    29.82S
ELLSWORTH AFB  MOSUNNY   74  25  16 W16       29.70R
PHILIP         SUNNY     77  36  22 SW12      29.68F
PINE RIDGE     SUNNY     73  28  18 W12       29.76F
WINNER         FAIR      77  45  32 SW7       29.71S
$$

SDZ004>011-016>023-039-040-240000-
NORTHEAST SOUTH DAKOTA

CITY           SKY/WX    TMP DP  RH WIND       PRES   REMARKS
ABERDEEN       CLOUDY    80  51  36 W8        29.68F
WATERTOWN      CLOUDY    73  58  59 S7        29.73S
BROOKINGS      PTSUNNY   72  60  66 SW8       29.73S
SISSETON         N/A     78  53  41 SW10      29.68F
$$

SDZ017-020-022-023-036>040-048>070-240000-
SOUTHEAST SOUTH DAKOTA

CITY           SKY/WX    TMP DP  RH WIND       PRES   REMARKS
SIOUX FALLS    CLOUDY    73  60  63 SW6       29.73R
HURON          SUNNY     75  54  47 S8        29.69F
CHAMBERLAIN    SUNNY     79  48  34 SW9       29.71S
MITCHELL       SUNNY     77  59  53 S8        29.71S
YANKTON        CLOUDY    73  59  60 SW3       29.72S
$$

ABBREVIATIONS USED IN REMARKS
   TC - TEMPERATURE IN CELSIUS
  WCI - WIND CHILL INDEX
   HX - HEAT INDEX
  VSB - VISIBILITY





USA.gov is the U.S. government's official web portal to all federal, state and local government web resources and services.